Location: Fort Wayne
(41.1310°N, 85.1290°W)
Time: 08:07:24
(UTC-05:00)

OPAL - Visible Passes

Search period start: 31 January 2015 00:00
Search period end: 10 February 2015 00:00
Orbit: 744 x 796 km, 100.2° (Epoch: 30 January)

Date Brightness Start Highest point End Pass type
(mag) Time Alt. Az. Time Alt. Az. Time Alt. Az.
31 Jan 9.6 05:13:53 10° ESE 05:18:01 25° ENE 05:22:15 10° N visible
31 Jan 7.9 06:51:43 10° S 06:56:40 43° W 07:01:40 10° NNW visible
31 Jan 7.7 19:01:32 10° NNE 19:06:31 49° ESE 19:11:24 10° S visible
31 Jan 9.8 20:41:11 10° NNW 20:45:05 22° WNW 20:48:49 10° WSW visible
01 Feb 10.4 04:41:06 10° E 04:43:07 13° ENE 04:45:23 10° NNE visible
01 Feb 7.6 06:16:06 10° SSE 06:21:19 87° ENE 06:26:35 10° NNW visible
01 Feb 8.7 18:27:00 10° NE 18:30:55 23° E 18:34:55 10° SSE visible
01 Feb 8.6 20:05:11 10° N 20:10:03 43° WNW 20:14:48 10° SW visible
02 Feb 8.8 05:41:17 10° SE 05:46:08 42° ENE 05:51:03 10° N visible
02 Feb 8.6 07:20:54 10° SSW 07:25:12 25° W 07:29:24 10° NW visible
02 Feb 7.4 19:29:41 10° NNE 19:34:51 87° ESE 19:39:55 10° SSW visible
02 Feb 10.4 21:10:45 10° NNW 21:13:05 13° WNW 21:15:10 10° W visible
03 Feb 9.9 05:07:22 10° ESE 05:11:06 21° ENE 05:15:00 10° NNE visible
03 Feb 7.7 06:44:33 10° S 06:49:39 53° WSW 06:54:47 10° NNW visible
03 Feb 7.9 18:54:40 10° NNE 18:59:27 40° E 19:04:11 10° S visible
03 Feb 9.5 20:33:57 10° N 20:38:10 26° WNW 20:42:13 10° WSW visible
04 Feb 10.6 04:35:42 10° ENE 04:36:15 10° NE 04:37:06 10° NE visible
04 Feb 7.8 06:09:09 10° SSE 06:14:20 72° ENE 06:19:35 10° NNW visible
04 Feb 8.9 18:20:25 10° NE 18:23:48 18° E 18:27:20 10° SE visible
04 Feb 8.2 19:58:06 10° N 20:03:06 53° WNW 20:07:58 10° SW visible
05 Feb 9.1 05:34:33 10° SE 05:39:12 35° ENE 05:43:56 10° N visible
05 Feb 8.4 07:13:32 10° SSW 07:18:07 30° W 07:22:40 10° NW visible
05 Feb 7.4 19:22:44 10° NNE 19:27:51 72° ESE 19:32:52 10° S visible
05 Feb 10.2 21:03:12 10° NNW 21:06:12 15° WNW 21:08:58 10° W visible
06 Feb 10.2 05:00:57 10° E 05:04:13 18° ENE 05:07:40 10° NNE visible
06 Feb 7.5 06:37:28 10° S 06:42:39 65° WSW 06:47:51 10° NNW visible
06 Feb 8.2 18:47:51 10° NE 18:52:23 32° E 18:56:53 10° SSE visible
06 Feb 9.2 20:26:47 10° N 20:31:14 31° WNW 20:35:34 10° SW visible
07 Feb 8.1 06:02:16 10° SSE 06:07:22 59° ENE 06:12:32 10° N visible
07 Feb 7.9 19:51:03 10° N 19:56:07 65° WNW 20:01:04 10° SSW visible
08 Feb 9.4 05:27:53 10° ESE 05:32:17 29° ENE 05:36:45 10° N visible
08 Feb 8.1 07:06:14 10° SSW 07:11:03 37° W 07:15:51 10° NNW visible
08 Feb 7.5 19:15:47 10° NNE 19:20:49 58° ESE 19:25:45 10° S visible
08 Feb 10.0 20:55:48 10° NNW 20:59:18 18° WNW 21:02:35 10° WSW visible
09 Feb 10.4 04:54:40 10° E 04:57:19 15° ENE 05:00:13 10° NNE visible
09 Feb 7.5 06:30:25 10° SSE 06:35:38 80° WSW 06:40:54 10° NNW visible
09 Feb 8.4 18:41:05 10° NE 18:45:17 26° E 18:49:30 10° SSE visible
09 Feb 8.9 20:19:37 10° N 20:24:17 37° WNW 20:28:50 10° SW visible
